RACE ROCKS, current weather conditions

sailwx.info

Wind from 280 at 25 knots

Air temperature 14.2° C
Dewpoint 11.6° C

Last reported at 2019-Aug-25 08:00 UTC.
Time now 2019-Aug-25 09:30 UTC

Location: N 48°18' W 123°32'.
View on Google Maps.

See reports from other nearby stations

  
Tides and Currents Weather Stations Pressure Air Temp Water Temp Dewpoint Dewpoint Depression Visibility Wind Speed Wind Dir Waves Ship Positions
date/time (UTC)wind fromknots sea level pressurealtimeterstation pressurevisibilityair tempwater tempwave heightnotes
2019-Aug-25 09:00 290 20 14.1
2019-Aug-25 08:00 280 25 14.2
2019-Aug-25 07:00 280 25 14.0
2019-Aug-25 06:00 280 29 13.9
2019-Aug-25 05:00 280 27 12.5
2019-Aug-25 04:00 280 27 14.4
2019-Aug-25 03:00 280 24 14.9
2019-Aug-25 02:00 280 27 15.2
2019-Aug-25 01:00 280 22 16.2
2019-Aug-25 00:00 280 27 16.0
2019-Aug-24 23:00 290 27 16.9
2019-Aug-24 22:00 280 26 16.9
2019-Aug-24 21:00 250 18 15.3
2019-Aug-24 20:00 250 12 14.2
2019-Aug-24 19:00 220 6 14.1
2019-Aug-24 18:00 200 2 14.0
2019-Aug-24 17:00 270 11 14.2
2019-Aug-24 16:00 260 12 11.5
2019-Aug-24 15:00 240 11 12.5
2019-Aug-24 14:00 220 8 13.1
2019-Aug-24 13:00 240 7 13.0
2019-Aug-24 12:00 270 14 12.9
2019-Aug-24 11:00 250 13 12.6
2019-Aug-24 10:00 280 17 14.4
2019-Aug-24 09:00 280 18 14.6
2019-Aug-24 08:00 270 20 14.2
2019-Aug-24 07:00 270 17 13.3
2019-Aug-24 06:00 270 17 13.0
2019-Aug-24 05:00 270 20 13.6
2019-Aug-24 04:00 280 21 14.1
2019-Aug-24 03:00 270 17 13.9
2019-Aug-24 02:00 270 17 13.4
2019-Aug-24 01:00 250 13 12.6
2019-Aug-24 00:00 280 12 15.6
2019-Aug-23 23:00 260 9 13.2
2019-Aug-23 22:00 230 7 13.5
2019-Aug-23 21:00 050 4 15.5
2019-Aug-23 20:00 020 5 16.0
2019-Aug-23 19:00 030 6 15.3
2019-Aug-23 18:00 240 4 13.5
2019-Aug-23 17:00 190 8 13.2
2019-Aug-23 16:00 260 13 12.3
2019-Aug-23 15:00 260 12 12.6
2019-Aug-23 14:00 250 15 12.3
2019-Aug-23 13:00 270 18 12.0
2019-Aug-23 12:00 270 21 12.2
2019-Aug-23 11:00 270 20 12.0
2019-Aug-23 10:00 270 14 12.0
2019-Aug-23 09:00 260 13 12.2